Tracking 28790 objects as of 18-Apr-2024
HD Live streaming from Space Station
objects crossing your sky now

COSMOS 2041

Track COSMOS 2041 now!
10-day predictions
COSMOS 2041 is classified as:


NORAD ID: 20235
Int'l Code: 1989-074D
Perigee: 1,402.8 km
Apogee: 1,417.7 km
Inclination: 82.6 °
Period: 113.9 minutes
Semi major axis: 7781 km
RCS: 1.3161 m2 (large)
Launch date: September 14, 1989
Source: Commonwealth of Independent States (former USSR) (CIS)
Launch site: PLESETSK MISSILE AND SPACE COMPLEX (PKMTR)
Your satellite tracking list
Your tracking list is empty




NASA's NSSDC Master Catalog

Two Line Element Set (TLE):
1 20235U 89074D   24108.74469507  .00000041  00000-0  16464-3 0  9996
2 20235  82.5882 356.0173 0009552  93.1835 330.1889 12.64813414596581
Source of the keplerian elements: AFSPC